Regional Weather Roundup
Issued by NWS Upton, NY

Current Version | Previous Version | Text Only | Print | Product List | Glossary On
Versions: 1 2 3 4 5 6 7 8 9 10 11 12 13 14 15 16 17 18 19 20 21 22 23 24 25 26 27 28 29 30 31 32 33 34 35 36 37 38 39 40 41 42 43 44 45 46 47 48 49 50
000 ASUS41 KOKX 191508 RWROKX REGIONAL WEATHER ROUNDUP NATIONAL WEATHER SERVICE NEW YORK NY 1100 AM EDT TUE SEP 19 2017 NOTE: "FAIR" INDICATES FEW OR NO CLOUDS BELOW 12,000 FEET WITH NO SIGNIFICANT WEATHER AND/OR OBSTRUCTIONS TO VISIBILITY. NYZ071-072-176-178-NJZ106-104-191600- NEW YORK CITY METRO AREA CITY SKY/WX TMP DP RH WIND PRES REMARKS Central Park PTSUNNY 75 64 68 E9G23 30.03F Bronx Bot Gard N/A 75 63 64 SE2 30.01F LaGuardia APRT PTSUNNY 74 66 76 NE22G29 29.99F Kennedy INTL PTSUNNY 75 64 68 NE23G31 30.00S Breezy Point N/A 72 N/A N/A NE17G28 N/A Newark/Liberty PTSUNNY 78 65 63 NE16G28 29.99F Teterboro MOSUNNY 77 66 68 NE9G20 29.99F $$ NYZ177-179-078>081-191600- LONG ISLAND NEW YORK CITY SKY/WX TMP DP RH WIND PRES REMARKS Jones Beach N/A 70 N/A N/A NE25G31 N/A Matinecock PT N/A 70 N/A N/A NE22 N/A Farmingdale CLOUDY 70 65 84 NE16G28 30.00S MacArthur/ISP LGT RAIN 69 66 90 NE20 30.00S FOG Shirley LGT RAIN 69 67 93 N12G18 30.00S FOG Mt Sinai Harb N/A N/A N/A N/A NE17G24 N/A Westhampton LGT RAIN 68 65 90 N18 30.01F East Hampton LGT RAIN 67 65 94 NE14G23 30.00S Montauk N/A 68 67 96 NE9G18 30.02S $$ NYZ052-065-067-191600- HUDSON VALLEY CITY SKY/WX TMP DP RH WIND PRES REMARKS White Plains MOSUNNY 73 63 70 NE15G23 30.02F Larchmont Harb N/A 72 N/A N/A N20 N/A Croton On Huds N/A 75 N/A N/A NE8G14 N/A Newburgh NOT AVBL Montgomery CLOUDY 72 65 78 NE12 30.06F Poughkeepsie CLOUDY 72 63 73 N10 30.05F Albany MOSUNNY 73 62 68 N3 30.11F $$ NJZ001-105-106-008-010-013-015-019>022-104-191600- NEW JERSEY CITY SKY/WX TMP DP RH WIND PRES REMARKS Newark/Liberty PTSUNNY 78 65 63 NE16G28 29.99F Teterboro MOSUNNY 77 66 68 NE9G20 29.99F Caldwell PTSUNNY 77 67 71 NE12 30.01F Somerville NOT AVBL Linden PTSUNNY 78 64 60 E17 29.99F Perth Amboy N/A 75 N/A N/A NE13G18 N/A Sussex CLOUDY 71 65 81 NE13 30.05F Andover N/A 70 65 84 NE8 30.05F Trenton MOSUNNY 74 66 76 N10 29.98S Millville CLOUDY 75 70 84 NE17G28 29.92F Atlantic City LGT RAIN 71 68 90 N20G29 29.91S FOG Wrightstown NOT AVBL Toms River LGT RAIN 71 67 87 NE20G25 29.96S Belmar LGT RAIN 71 65 81 NE20G26 29.97F $$ PAZ047>061-062-071-191600- EASTERN PENNSYLVANIA CITY SKY/WX TMP DP RH WIND PRES REMARKS Philadelphia PTSUNNY 79 65 62 NE22 29.96F Allentown MOSUNNY 74 65 73 NE14 30.02F Scranton CLOUDY 71 63 75 NE9 30.07F $$ CTZ002-004>006-009-010-012-RIZ004-006-007-MAZ004-011-015-191600- SOUTHERN NEW ENGLAND IN CT CITY SKY/WX TMP DP RH WIND PRES REMARKS Bradley INTL CLOUDY 71 63 75 N14 30.09F Hartford LGT RAIN 71 64 78 N9 30.07F Danbury PTSUNNY 70 63 78 NE13G21 30.07F Wtrbury/Oxford CLOUDY 66 63 90 NE14G22 30.07F Norwalk Harbor N/A 70 N/A N/A N21 N/A Bridgeport CLOUDY 72 63 73 N21G28 30.02F Meriden PTSUNNY 71 63 75 N14 30.06F New Haven MOSUNNY 74 64 71 N20G26 30.02F Chester CLOUDY 70 64 83 NE8G15 30.05F Groton CLOUDY 71 65 81 NE18G26 30.02R Wilimantic CLOUDY 70 65 84 NE13 30.07F IN RI CITY SKY/WX TMP DP RH WIND PRES REMARKS Providence LGT RAIN 67 67 100 NE15 30.07F FOG Block Island LGT RAIN 67 66 97 NE12G25 30.02S Westerly CLOUDY 70 67 90 NE12G23 30.04S IN MA CITY SKY/WX TMP DP RH WIND PRES REMARKS Boston FOG 64 63 96 N15 30.11F VSB 1 Worcester CLOUDY 62 60 93 N13G18 30.13F Westfield CLOUDY 70 63 78 NE9 30.11F Provincetown CLOUDY 64 64 100 NE9G18 30.09F FOG Nantucket LGT RAIN 66 66 100 NE17 30.00F FOG $$ ANZ330-335-338-340-345-350-353-355-191600- COASTAL MARINE OBSERVATIONS STATION/POSITION TIME SKY/WX TEMP WIND PRES VSBY WAVE AIR SEA DIR/SP/G HT/PER (UTC) (F) (DEG/KT/KT) (MB) (MI) (FT/S) NY HARB ENTRANCE 1350 70 70 30/ 21/ 27 1013.8 9/12 20 S FIRE ISLAND 1350 68 68 40/ 25/ 33 1013.5 14/13 GREAT SOUTH BAY 1430 69 72 30/ 16/ 23 N/A 23 SSW MONTAUK P 1350 67 67 1014.8 13/12 15 E BARNEGAT LI 1430 71 N/A 12/14 HUDSON CANYON 1350 69 70 40/ 29/ 37 1009.0 18/14 KINGS POINT 1430 71 71 70/ 10/ 15 1017.0 EXECUTION ROCKS 1445 72 60/ 17/ 21 N/A WESTERN LI SOUND NOT AVBL CENTRAL LI SOUND 1345 69 50/ 17/ 21 N/A 1 EASTERN LI SOUND NOT AVBL ROBBINS REEF 1430 73 40/ 24/ 28 1016.2 $$ >>>>>>>>>>>>>>>>>>>>>>>>>>>> KEY <<<<<<<<<<<<<<<<<<<<<<<<<<< > < > SKY/WX - Sky Condition/Present Weather < > TMP - Temperature in Fahrenheit < > DP - Dew Point in Fahrenheit < > RH - Relative Humidity in Percent < > WIND - Direction (from) and Speed in MPH < > PRES - Mean Sea Level Pressure (inches of Hg) < > WCI - Wind Chill Index < > VSB - VISIBILITY IN MILES < > HX - HEAT INDEX < > TC - TEMPERATURE IN CELSIUS < > VRB - VARIABLE WIND DIRECTION < > < >>>>>>>>>>>>>>>>>>>>>>>>>>>> KEY <<<<<<<<<<<<<<<<<<<<<<<<<<<

USA.gov is the U.S. government's official web portal to all federal, state and local government web resources and services.